Regional Weather Roundup
Issued by NWS Newport/Morehead, NC

Current Version | Previous Version | Text Only | Print | Product List | Glossary On
Versions: 1 2 3 4 5 6 7 8 9 10 11 12 13 14 15 16 17 18 19 20 21 22 23 24 25 26 27 28 29 30 31 32 33 34 35 36 37 38 39 40 41 42 43 44 45 46 47 48 49 50
000 ASUS42 KMHX 020228 RWRMHX WEATHER ROUNDUP FOR EASTERN NORTH CAROLINA NATIONAL WEATHER SERVICE NEWPORT/MOREHEAD CITY NC 900 PM EST SUN MAR 01 2015 NOTE: "FAIR" INDICATES FEW OR NO CLOUDS BELOW 12,000 FEET WITH NO SIGNIFICANT WEATHER AND/OR OBSTRUCTIONS TO VISIBILITY NCZ015>017-031-032-045>047-102-103-020300- NORTH COAST CITY SKY/WX TMP DP RH WIND PRES REMARKS EDENTON RAIN 36 35 96 CALM 30.34S ELIZABETH CITY HVY RAIN 36 36 100 NW3 30.33F FOG KITTY HAWK CLOUDY 37 37 100 W7 30.33F FOG MANTEO CLOUDY 37 37 100 NW7 30.34F $$ NCZ045>047-081-094-103-104-020300- CENTRAL COAST CITY SKY/WX TMP DP RH WIND PRES REMARKS FRISCO LGT RAIN 44 43 96 N8 30.33S FOG SWANQUARTER N/A 41 N/A N/A NW3 30.30F $$ NCZ095-097-098-100-101-020300- SOUTHERN COAST CITY SKY/WX TMP DP RH WIND PRES REMARKS BEAUFORT LGT RAIN 47 46 97 NW12 30.35S CEDAR ISLAND N/A 41 N/A N/A NW6G12 30.39S JACKSONVILLE CLOUDY 42 40 92 NW8 30.38F FOG PINEY ISLAND N/A N/A N/A N/A MISG 30.35S WILMINGTON CLOUDY 43 42 97 NW8 30.37F $$ NCZ011>013-027>030-043-044-078>080-089-090>093-098-020300- COASTAL PLAIN CITY SKY/WX TMP DP RH WIND PRES REMARKS AHOSKIE CLOUDY 32 32 99 CALM 30.34F CLINTON CLOUDY 38 38 100 CALM 30.36F FOG ELIZABETHTOWN CLOUDY 38 38 100 CALM 30.36F FOG GOLDSBORO CLOUDY 37 37 100 CALM 30.32F GREENVILLE DRIZZLE 36 36 100 CALM 30.35F HAVELOCK CLOUDY 43 41 93 N8 30.37S FOG KENANSVILLE CLOUDY 37 37 100 CALM 30.36F FOG KINSTON CLOUDY 37 37 100 SE3 30.35F FOG NEW BERN RAIN 40 38 93 NW6 30.38S FOG RICHLANDS CLOUDY 39 36 87 CALM 30.37F ROCKY MOUNT CLOUDY 35 34 96 SW3 30.34F WASHINGTON DRIZZLE 36 35 96 SE3 30.34F WHITEVILLE CLOUDY 39 38 96 CALM 30.37F FOG $$ AMZ130-135-150-152-154-156-158-170-250-252-270-ANZ085-086-088-633-658-670-020300- MARINE OBSERVATIONS STATION/POSITION TIME TEMP WIND PRES WAVE SWELL AIR SEA DIR/SP/G HT/PER HT/PER (UTC) (F) (DEG/KT/KT) (MB) (FT/S) (FT/S) CHESAPEAKE LIGHT 0200 32 320/ 5/ 5 1027.0 64 E VA BEACH 0150 60 300/ 12/ 16 1025.3 5/ 6 3/ 6 DUCK 0100 36 34 320/ 12/ 14 1026.6 2 E DUCK 0111 N/A 3/ 5 10 NE DUCK 0122 36 N/A 4/ 6 OREGON INLET 0100 41 40 300/ 10/ 14 1027.3 HATTERAS CG 0100 45 41 280/ 9/ 14 1027.7 CAPE LOOKOUT 0200 51 340/ 6/ 7 1027.2 BEAUFORT LAB 0200 47 42 360/ 7/ 9 1026.6 27 SE WRIGHTSVLE NOT AVBL 5 SE WRIGHTSVLE NOT AVBL 225 S CAPE HAT 0150 70 72 160/ 16/ 19 1029.4 8/ 8 5/ 8 41 SE CHARLESTON 0150 54 68 350/ 10/ 14 1028.2 6/ 9 5/ 9 $$

USA.gov is the U.S. government's official web portal to all federal, state and local government web resources and services.